User: anonymous   Login
Location: Chevoux
(46.3801°N, 4.9476°E)
Time: 03:34:28
(UTC+00:00)
Language:

Cosmos 1869 - Orbit

View from above orbital plane
View from above orbital plane
View from above satellite
View from above satellite

Ground track
Ground track

The orbit data is extracted from the following two-line orbital elements,

1 18214U 87062A   21106.68960793  .00000109  00000-0  49239-5 0  9999
2 18214  82.4947 168.1288 0032649 152.9432 207.3508 15.08486377839426
Epoch (UTC): 16 April 2021 16:33:02
Eccentricity: 0.0032649
inclination: 82.4947°
perigee height: 518 km
apogee height: 563 km
right ascension of ascending node: 168.1288°
argument of perigee: 152.9432°
revolutions per day: 15.08486377
mean anomaly at epoch: 207.3508°
orbit number at epoch: 83942

The dashed part of the orbit path shows where the satellite is in the earth's shadow,  

DLR